EW5961 Weather Reports


time (UTC)temp
C
wind
direction
speed
KPH
gust
KPH
rain 1hr
cm
rain 24hr
cm
rain mn
cm
humidity
%
barometer
mb
20260506204520 38 158 17.7 33.8 0.00 0.00 0.00 40 1007.7
20260506203020 38 137 25.7 37.0 0.00 0.00 0.00 39 1008.0
20260506201521 38 143 24.1 41.8 0.00 0.00 0.00 38 1008.3
20260506200018 38 133 17.7 32.2 0.00 0.00 0.00 39 1008.3
20260506194513 38 159 24.1 37.0 0.00 0.00 0.00 38 1008.7
20260506193010 38 140 20.9 35.4 0.00 0.00 0.00 39 1008.7
20260506191510 38 140 19.3 35.4 0.00 0.00 0.00 41 1009.2
20260506190003 37 146 17.7 40.2 0.00 0.00 0.00 41 1009.5
20260506184602 38 178 16.1 35.4 0.00 0.00 0.00 41 1009.7
20260506183105 37 144 22.5 38.6 0.00 0.00 0.00 41 1010.1
20260506181556 37 140 20.9 35.4 0.00 0.00 0.00 43 1010.3
20260506180048 37 146 17.7 33.8 0.00 0.00 0.00 43 1010.5
20260506173051 36 136 17.7 30.6 0.00 0.00 0.00 47 1010.9
20260506171538 36 155 16.1 32.2 0.00 0.00 0.00 48 1011.1
20260506170035 35 120 20.9 35.4 0.00 0.00 0.00 50 1011.2
20260506164531 35 126 20.9 40.2 0.00 0.00 0.00 50 1011.4
20260506163044 34 130 24.1 40.2 0.00 0.00 0.00 52 1011.5
20260506161526 33 128 25.7 41.8 0.00 0.00 0.00 54 1011.7
20260506160019 33 144 29.0 38.6 0.00 0.00 0.00 55 1011.9
20260506154528 32 140 22.5 40.2 0.00 0.00 0.00 58 1012.0
20260506153011 32 195 24.1 41.8 0.00 0.00 0.00 60 1012.1
20260506151511 31 159 20.9 38.6 0.00 0.00 0.00 65 1012.1
20260506150006 31 140 24.1 40.2 0.00 0.00 0.00 67 1012.2
20260506144559 30 151 22.5 43.5 0.00 0.00 0.00 70 1012.3
20260506143055 30 117 29.0 43.5 0.00 0.00 0.00 72 1012.2
20260506141551 29 121 25.7 38.6 0.00 0.00 0.00 74 1012.2
20260506140047 28 146 25.7 45.1 0.00 0.00 0.00 77 1012.3
20260506134544 28 141 29.0 40.2 0.00 0.00 0.00 78 1012.3
20260506133046 27 124 24.1 38.6 0.00 0.00 0.00 81 1012.3
20260506131539 26 133 29.0 38.6 0.00 0.00 0.00 83 1012.2
20260506130038 26 138 19.3 29.0 0.00 0.00 0.00 86 1012.4
20260506124531 25 131 20.9 29.0 0.00 0.00 0.00 87 1012.2
20260506123027 25 145 14.5 24.1 0.00 0.00 0.00 88 1012.2
20260506121522 25 140 14.5 24.1 0.00 0.00 0.00 88 1012.1
20260506120019 24 136 16.1 22.5 0.00 0.00 0.00 88 1012.1
20260506114515 24 107 16.1 22.5 0.00 0.00 0.00 88 1011.9
20260506111515 24 130 12.9 24.1 0.00 0.00 0.00 88 1011.7
20260506110010 24 136 14.5 24.1 0.00 0.00 0.00 87 1011.7
20260506104505 25 130 16.1 25.7 0.00 0.00 0.00 87 1011.7
20260506103004 25 147 16.1 27.4 0.00 0.00 0.00 87 1011.4
20260506101502 25 111 14.5 24.1 0.00 0.00 0.00 86 1011.4
20260506100100 25 117 16.1 22.5 0.00 0.00 0.00 86 1011.3
20260506094601 25 121 11.3 22.5 0.00 0.00 0.00 85 1011.4
20260506093101 25 128 14.5 20.9 0.00 0.00 0.00 84 1011.2
20260506091556 25 112 11.3 20.9 0.00 0.00 0.00 84 1011.3
20260506090105 25 129 12.9 19.3 0.00 0.00 0.00 84 1011.3
20260506084606 26 104 14.5 20.9 0.00 0.00 0.00 83 1011.2
20260506083053 26 132 12.9 22.5 0.00 0.00 0.00 82 1011.2
20260506081549 26 128 16.1 24.1 0.00 0.00 0.00 82 1011.4
20260506073045 26 140 14.5 20.9 0.00 0.00 0.00 80 1011.4
20260506071542 26 143 19.3 27.4 0.00 0.00 0.00 79 1011.3
20260506070140 27 140 14.5 22.5 0.00 0.00 0.00 79 1011.4
20260506061534 27 132 20.9 30.6 0.00 0.00 0.00 76 1011.6
20260506044525 29 107 24.1 37.0 0.00 0.00 0.00 70 1011.8
20260506043024 29 126 19.3 32.2 0.00 0.00 0.00 69 1011.8
20260506041623 30 83 24.1 41.8 0.00 0.00 0.00 68 1011.6
20260506040022 30 140 25.7 40.2 0.00 0.00 0.00 67 1011.4
20260506034533 31 113 25.7 43.5 0.00 0.00 0.00 65 1011.0
20260506033021 31 79 20.9 33.8 0.00 0.00 0.00 64 1010.9
20260506031522 31 121 20.9 41.8 0.00 0.00 0.00 63 1010.5
20260506030022 32 119 29.0 41.8 0.00 0.00 0.00 62 1010.3
20260506024519 32 145 27.4 43.5 0.00 0.00 0.00 61 1010.1
20260506023019 33 118 20.9 38.6 0.00 0.00 0.00 60 1010.0
20260506021518 33 134 27.4 45.1 0.00 0.00 0.00 58 1009.7
20260506020017 33 131 16.1 35.4 0.00 0.00 0.00 57 1009.3
20260506014519 34 125 17.7 27.4 0.00 0.00 0.00 56 1008.9
20260506013033 34 112 16.1 25.7 0.00 0.00 0.00 54 1008.7
20260506011523 35 156 16.1 24.1 0.00 0.00 0.00 53 1008.7
20260506010016 35 110 14.5 20.9 0.00 0.00 0.00 52 1008.4
20260506004516 35 152 14.5 20.9 0.00 0.00 0.00 50 1008.4
20260506003013 35 117 17.7 25.7 0.00 0.00 0.00 50 1008.2
20260506001513 36 127 19.3 29.0 0.00 0.00 0.00 50 1008.0
20260506000012 36 139 17.7 27.4 0.00 0.00 0.00 49 1007.9
20260505234512 36 126 14.5 22.5 0.00 0.00 0.00 47 1007.8
20260505233018 36 135 20.9 30.6 0.00 0.00 0.00 47 1007.8
20260505231513 37 123 14.5 25.7 0.00 0.00 0.00 46 1007.7
20260505230011 38 128 12.9 25.7 0.00 0.00 0.00 45 1007.5
20260505224512 37 148 12.9 27.4 0.00 0.00 0.00 44 1007.5
20260505223009 38 160 11.3 29.0 0.00 0.00 0.00 44 1007.5
20260505221508 37 128 11.3 24.1 0.00 0.00 0.00 44 1007.4
20260505220015 38 142 9.7 20.9 0.00 0.00 0.00 44 1007.5
20260505214506 38 122 17.7 25.7 0.00 0.00 0.00 43 1007.6
20260505213005 38 116 8.0 24.1 0.00 0.00 0.00 43 1007.7
20260505211503 38 82 16.1 27.4 0.00 0.00 0.00 44 1007.9
20260505210107 37 103 6.4 24.1 0.00 0.00 0.00 46 1008.0